Regional Weather Roundup
Issued by NWS Austin/San Antonio, TX

Home | Current Version | Previous Version | Text Only | Print | Product List | Glossary On
Versions: 1 2 3 4 5 6 7 8 9 10 11 12 13 14 15 16 17 18 19 20 21 22 23 24 25 26 27 28 29 30 31 32 33 34 35 36 37 38 39 40 41 42 43 44 45 46 47 48 49 50
000
ASUS44 KEWX 190001
RWREWX
SOUTH TEXAS REGIONAL WEATHER ROUNDUP
NATIONAL WEATHER SERVICE AUSTIN/SAN ANTONIO TX
600 PM CST SUN FEB 18 2018

NOTE: "FAIR" INDICATED FEW OR NO CLOUDS BELOW 12,000 FEET WITH NO
SIGNIFICANT WEATHER AND/OR OBSTRUCTIONS TO VISIBILITY.

* - THESE STATIONS ARE NOT NWS OR FAA STATIONS...AND ARE NOT SUBJECT
    TO NWS AND FAA QUALITY CONTROL.

TXZ171-172-183>190-190100-
TEXAS HILL COUNTRY AND EDWARDS PLATEAU

CITY           SKY/WX    TMP DP  RH WIND       PRES   REMARKS
JUNCTION       CLOUDY    70  61  73 S7        29.88F
6HR MIN TEMP:  58; 6HR MAX TEMP:  72;

*LLANO         PTCLDY    72  63  73 SE7       29.94S
BURNET         PTCLDY    67  62  84 S9        29.93F
6HR MIN TEMP:  56; 6HR MAX TEMP:  69;

*HORSESHOE BAY PTCLDY    70  63  77 SE6       29.91S
6HR MIN TEMP:  56; 6HR MAX TEMP:  74;

*KERRVILLE     CLOUDY    74  62  65 S9        29.92S
6HR MIN TEMP:  59; 6HR MAX TEMP:  76;

*FREDERICKSBRG PTCLDY    70  60  70 SE6       29.92S
6HR MIN TEMP:  58; 6HR MAX TEMP:  72;

*ROCKSPRINGS   CLOUDY    64  63  94 S6        29.95S
*BOERNE STAGE  MOCLDY    72  61  68 SE7       29.94S
*CASTROVILLE   MOCLDY    79  60  52 SE17      29.91S
HONDO          MOCLDY    80  63  55 SE8       29.90S
6HR MIN TEMP:  66; 6HR MAX TEMP:  84;

*UVALDE        PTCLDY    79  59  50 SE15      29.88S
6HR MIN TEMP:  59; 6HR MAX TEMP:  81;

DEL RIO        PTCLDY    71  63  75 SE14      29.85F
6HR MIN TEMP:  63; 6HR MAX TEMP:  72;

LAUGHLIN AFB   NOT AVBL
CARRIZO SPRGS  PTCLDY    82  59  44 S16       29.84F
*EAGLE PASS    CLEAR     75  63  64 SW5       29.86S
*FAITH RANCH   CLEAR     84  59  42 S14G21    29.85S
$$

TXZ173-191>194-202-209-217>225-228-190100-
CENTRAL AND SOUTH CENTRAL TEXAS

CITY           SKY/WX    TMP DP  RH WIND       PRES   REMARKS
GEORGETOWN     CLOUDY    73  64  73 S10       29.93F
6HR MIN TEMP:  54; 6HR MAX TEMP:  73;

AUSTIN/BERGSTM CLOUDY    76  64  66 SE14G25   29.92S
6HR MIN TEMP:  57; 6HR MAX TEMP:  77;

AUSTIN/MABRY   CLOUDY    75  62  64 S7G20     29.93F
6HR MIN TEMP:  58; 6HR MAX TEMP:  75;

*AUSTIN/EXEC   CLOUDY    75  63  64 SE14G21   29.93S
*LAGO VISTA    CLOUDY    69  65  86 SE6       29.93F
6HR MIN TEMP:  56; 6HR MAX TEMP:  69;

SAN MARCOS     CLOUDY    76  61  59 SE20G25   29.92F
6HR MIN TEMP:  57; 6HR MAX TEMP:  79;

NEW BRAUNFELS  MOCLDY    77  59  53 S23       29.91S
6HR MIN TEMP:  58; 6HR MAX TEMP:  80;

RANDOLPH AFB   PTCLDY    77  61  57 SE17      29.91S
6HR MIN TEMP:  58; 6HR MAX TEMP:  80;

PT SAN ANTONIO PTCLDY    78  62  56 SE20G28   29.89S
6HR MIN TEMP:  60; 6HR MAX TEMP:  80;

SAN ANTONIO    MOCLDY    77  60  55 SE16      29.91F
6HR MIN TEMP:  59; 6HR MAX TEMP:  80; 6HR PCP: TRACE;

STINSON FIELD  PTCLDY    80  62  54 SE20G28   29.89R
6HR MIN TEMP:  62; 6HR MAX TEMP:  82;

*LA GRANGE     PTCLDY    76  64  65 SE14      29.94F
6HR MIN TEMP:  66; 6HR MAX TEMP:  81;

*GIDDINGS      PTCLDY    75  62  63 S12G22    29.96S
6HR MIN TEMP:  55; 6HR MAX TEMP:  78;

*GONZALES      PTCLDY    77  62  60 S14G20    29.93F
6HR MIN TEMP:  63; 6HR MAX TEMP:  82;

$$

TXZ163>164-176>182-195>201-210>213-226-227-235-190100-
SOUTHEAST TEXAS

CITY           SKY/WX    TMP DP  RH WIND       PRES   REMARKS
COLLEGE STN    PTCLDY    75  63  66 S14       29.95F
6HR MIN TEMP:  61; 6HR MAX TEMP:  78;

*BRYAN         PTCLDY    74  64  69 MISG      29.96F
6HR MIN TEMP:  60; 6HR MAX TEMP:  77; 6HR PCP:  0.01;

*CALDWELL      PTCLDY    75  63  66 S18G26    29.95S
6HR MIN TEMP:  60; 6HR MAX TEMP:  78;

*CROCKETT      PTCLDY    72  64  78 SE8       30.00F
*BRENHAM       PTCLDY    77  64  63 S14G20    29.98R
6HR MIN TEMP:  66; 6HR MAX TEMP:  81;

HUNTSVILLE     MOCLDY    75  64  68 SE6       29.98F
6HR MIN TEMP:  65; 6HR MAX TEMP:  79; 6HR PCP: TRACE;

CONROE         MOCLDY    73  67  81 SE10      30.01R
6HR MIN TEMP:  69; 6HR MAX TEMP:  79;

HOUSTON BUSH   MOCLDY    74  67  78 SE18      30.01S
6HR MIN TEMP:  71; 6HR MAX TEMP:  79;

HOUSTON HOBBY  MOCLDY    73  68  84 SE13G21   30.02S
6HR MIN TEMP:  72; 6HR MAX TEMP:  80;

*HOUSTON SW AP MOCLDY    72  66  82 MISG      30.03S
6HR MIN TEMP:  72; 6HR MAX TEMP:  79;

PEARLAND       FAIR      73  69  87 S12G18    30.05R
6HR MIN TEMP:  73; 6HR MAX TEMP:  79;

HOUSTON HOOKS  FAIR      75  65  70 S10G21    30.00S
6HR MIN TEMP:  73; 6HR MAX TEMP:  82;

ELLINGTON FLD  MOCLDY    72  66  83 SE14      30.04S
SUGAR LAND     FAIR      76  64  66 S17       30.01R
6HR MIN TEMP:  75; 6HR MAX TEMP:  83;

*HOUSTON EXEC  FAIR      73  64  73 S14       30.01S
*CLEVELAND MUN FAIR      72  63  71 S10       30.03S
6HR MIN TEMP:  69; 6HR MAX TEMP:  78;

*WHARTON       CLEAR     73  63  70 SE14      30.01S
6HR MIN TEMP:  73; 6HR MAX TEMP:  80;

*COLUMBUS      MOCLDY    73  64  71 S14       30.00S
6HR MIN TEMP:  70; 6HR MAX TEMP:  81;

*EAGLE LAKE    PTCLDY    74  66  76 S14       29.99S
6HR MIN TEMP:  74; 6HR MAX TEMP:  81;

$$

TXZ214>216-236>238-190100-
THE UPPER TEXAS COAST

CITY           SKY/WX    TMP DP  RH WIND       PRES   REMARKS
*ORANGE        MOCLDY    71  70  96 S9        30.09S
6HR MIN TEMP:  70; 6HR MAX TEMP:  76;

PORT ARTHUR    FAIR      70  66  87 S13       30.06S
6HR MIN TEMP:  69; 6HR MAX TEMP:  76;

GALVESTON      FAIR      69  67  93 SE12      30.05S FOG
6HR MIN TEMP:  69; 6HR MAX TEMP:  75;

ANGLETON       MOCLDY    73  67  81 SE14      30.03S
6HR MIN TEMP:  73; 6HR MAX TEMP:  80;

*BAY CITY      CLOUDY    74  67  79 SE13G20   30.02S
PALACIOS       PTCLDY    72  70  93 SE15      30.00F
6HR MIN TEMP:  72; 6HR MAX TEMP:  78;

$$

TXZ229>234-239>247-190100-
TEXAS COASTAL BEND AND RIO GRANDE PLAINS

CITY           SKY/WX    TMP DP  RH WIND       PRES   REMARKS
VICTORIA       PTCLDY    73  64  73 S17       29.98S
6HR MIN TEMP:  73; 6HR MAX TEMP:  82;

*BEEVILLE      CLEAR     76  60  56 SE16G24   29.94R
6HR MIN TEMP:  76; 6HR MAX TEMP:  83;

ROCKPORT       CLEAR     70  67  90 SE13      29.97S FOG
6HR MIN TEMP:  70; 6HR MAX TEMP:  78;

*PORT ARANSAS  NOT AVBL
*PORT LAVACA   MOCLDY    71  66  85 SE12      30.00S
6HR MIN TEMP:  71; 6HR MAX TEMP:  79;

*INGLESIDE     PTCLDY    73  68  86 MISG      29.97S
CORPUS CHRISTI PTCLDY    75  66  73 SE22G31   29.94F
6HR MIN TEMP:  75; 6HR MAX TEMP:  82; 6HR PCP: TRACE;

CORPUS NAS     CLEAR     72  69  90 SE14      29.96R
6HR MIN TEMP:  72; 6HR MAX TEMP:  79;

*ROBSTOWN      CLEAR     75  65  70 S20G28    29.94F
6HR MIN TEMP:  75; 6HR MAX TEMP:  83;

ALICE          CLEAR     78  60  53 SE21G28   29.91S
6HR MIN TEMP:  78; 6HR MAX TEMP:  87;

KINGSVILLE NAS PTCLDY    77  65  66 SE18      29.93S
6HR MIN TEMP:  77; 6HR MAX TEMP:  86;

COTULLA        MOCLDY    83  59  44 SE22G31   29.86R
6HR MIN TEMP:  75; 6HR MAX TEMP:  88;

LAREDO         PTCLDY    85  59  41 SE18      29.86S
6HR MIN TEMP:  79; 6HR MAX TEMP:  88;

$$

TXZ248>255-190100-
DEEP SOUTH TEXAS

CITY           SKY/WX    TMP DP  RH WIND       PRES   REMARKS
BROWNSVILLE    FAIR      77  69  76 SE17G28   29.96S
6HR MIN TEMP:  77; 6HR MAX TEMP:  85;

PORT ISABEL    FAIR      76  67  73 S20G26    29.95R
6HR MIN TEMP:  76; 6HR MAX TEMP:  82;

*SOUTH PA



USA.gov is the U.S. government's official web portal to all federal, state and local government web resources and services.